Cortez, CO

10:32 AM MST on November 22, 2019 (GMT -0700)
Cortez Municipal

Weather History for KCEZ - October, 2019

Change the Weather History Date:

Wednesday, October 23, 2019

  Actual Average Record
Temperature  
Mean Temperature 44 °F 46 °F  
Max Temperature 64 °F 63 °F 77 °F (2003)
Min Temperature 23 °F 29 °F 19 °F (1996)
Degree Days  
Heating Degree Days 21 19  
Month to date heating degree days 419 344  
Since 1 July heating degree days 525 516  
Cooling Degree Days 0 0  
Month to date cooling degree days 0 0  
Year to date cooling degree days 547 426  
Moisture  
Dew Point 18 °F    
Average Humidity 43    
Maximum Humidity 68    
Minimum Humidity 17    
Precipitation  
Precipitation 0.00 in 0.03 in 0.46 in (2000)
Month to date precipitation T 0.99  
Year to date precipitation 10.03 11.21  
Sea Level Pressure  
Sea Level Pressure 30.07 in    
Wind  
Wind Speed 8 mph (NE)    
Max Wind Speed 22 mph    
Max Gust Speed 33 mph    
Visibility 10 miles    
Events      
T = Trace of Precipitation, MM = Missing Value Source: NWS Daily Summary

Daily Weather History Graph

Daily Weather History Graph

Search for Another Location

Airport or City:

Astronomy

Oct. 23, 2019 Rise Set
Actual Time 7:29 AM MDT 6:27 PM MDT
Civil Twilight 7:03 AM MDT 6:53 PM MDT
Nautical Twilight 6:32 AM MDT 7:24 PM MDT
Astronomical Twilight 6:02 AM MDT 7:54 PM MDT
Moon 2:01 AM MDT (10/23) 4:11 PM MDT (10/23)
Length of Visible Light 11h 50m
Length of Day
10h 57m
Waning Crescent, 26% of the Moon is Illuminated
Oct 23
Waning Crescent
Oct 27
New
Nov 4
First Quarter
Nov 12
Full
Nov 19
Last Quarter

Hourly Weather History & Observations

Time (MDT) Temp. Windchill Dew Point Humidity Pressure Visibility Wind Dir Wind Speed Gust Speed Precip Events Conditions
12:53 AM 30.0 °F 24.1 °F 19.9 °F 66% 30.13 in 10.0 mi East 5.8 mph - N/A   Clear
1:53 AM 30.0 °F 24.1 °F 19.0 °F 64% 30.11 in 10.0 mi East 5.8 mph - N/A   Clear
2:53 AM 28.0 °F 21.7 °F 18.0 °F 66% 30.12 in 10.0 mi ENE 5.8 mph - N/A   Clear
3:53 AM 27.0 °F 20.5 °F 18.0 °F 69% 30.11 in 10.0 mi ENE 5.8 mph - N/A   Clear
4:53 AM 25.0 °F 20.7 °F 16.0 °F 69% 30.11 in 10.0 mi NE 3.5 mph - N/A   Clear
5:53 AM 26.1 °F 19.4 °F 18.0 °F 71% 30.11 in 10.0 mi East 5.8 mph - N/A   Clear
6:53 AM 26.1 °F 19.4 °F 18.0 °F 71% 30.13 in 10.0 mi ENE 5.8 mph - N/A   Clear
7:53 AM 26.1 °F 18.4 °F 17.1 °F 69% 30.14 in 10.0 mi ENE 6.9 mph - N/A   Clear
8:53 AM 37.0 °F 33.3 °F 23.0 °F 57% 30.12 in 10.0 mi NE 4.6 mph - N/A   Clear
9:53 AM 44.1 °F 42.5 °F 24.1 °F 45% 30.13 in 10.0 mi East 3.5 mph - N/A   Clear
10:53 AM 48.9 °F - 24.1 °F 38% 30.11 in 10.0 mi Calm Calm - N/A   Clear
11:53 AM 55.9 °F - 27.0 °F 33% 30.08 in 10.0 mi Variable 4.6 mph - N/A   Clear
12:53 PM 61.0 °F - 25.0 °F 25% 30.04 in 10.0 mi West 12.7 mph 20.7 mph N/A   Clear
1:53 PM 63.0 °F - 23.0 °F 22% 30.01 in 10.0 mi West 13.8 mph - N/A   Clear
2:53 PM 63.0 °F - 19.9 °F 19% 29.98 in 10.0 mi West 11.5 mph 23.0 mph N/A   Clear
3:53 PM 64.0 °F - 19.9 °F 18% 29.98 in 10.0 mi West 15.0 mph 20.7 mph N/A   Clear
4:53 PM 63.0 °F - 18.0 °F 18% 29.98 in 10.0 mi WNW 15.0 mph - N/A   Clear
5:53 PM 60.1 °F - 15.1 °F 17% 29.97 in 10.0 mi West 9.2 mph - N/A   Clear
6:53 PM 45.0 °F 43.5 °F 14.0 °F 29% 30.03 in 9.0 mi SE 3.5 mph - N/A   Clear
7:53 PM 39.9 °F 37.8 °F 12.0 °F 32% 30.06 in 10.0 mi East 3.5 mph - N/A   Clear
8:53 PM 39.9 °F 35.8 °F 10.9 °F 31% 30.04 in 10.0 mi NNE 5.8 mph - N/A   Clear
9:53 PM 32.0 °F 25.6 °F 9.0 °F 38% 30.06 in 10.0 mi ENE 6.9 mph - N/A   Clear
10:53 PM 48.0 °F - 6.1 °F 18% 30.02 in 10.0 mi NNW 17.3 mph 31.1 mph N/A   Clear
11:53 PM 45.0 °F 37.9 °F 10.9 °F 25% 30.03 in 10.0 mi NW 16.1 mph 25.3 mph N/A   Clear